DELTA 1 R/B, 515

Orbit data source: Space-Track

DELTA 1 R/B, 515 is space debris originally from a launch on Thu, 13 Dec 1962 UTC launched from the Air Force Eastern Test Range (AFETR). Debris objects in space refer to the collection of defunct objects orbiting the Earth. Examples of debris include non-operational satellites, rocket bodies, and fragments generated from explosions, collisions, or faulty payload assembly.

Loading next visibility...
Identifier
515, 1962-068B
Orbit
Active
Last TLE update
16 hours ago
Origin
Manufacturer
ABL
Mission
Spacecraft
Bus & Motor
ALTAIR, Unknown motor
Mass
24 kg wet, 24 kg dry
Launch date (UTC)
1962-12-13 (63 years ago)
Launch vehicle
Unknown
Launch site
Air Force Eastern Test Range (AFETR)
Object type
Payload
Rocket body
Debris
Shape & HBR
Cyl, 0.8 m
Radar Cross Section
0.687 m², Medium (>0.1 m² and < 1m²)

Expand to show TLE details & history

TLE from 16 hours ago
0 DELTA 1 R/B
1 00515U 62068B   25199.30425422 -.00000015  00000-0  00000-0 0  9998
2 00515  47.5219  65.8140 2833034 233.4769  97.0639  7.79261129781826
Epoch: 2025-07-18T07:18Z
TLE epoch observation values (Epoch: 2025-07-18T07:18:07.564Z)
Latitude
Longitude
19.92485°
Altitude
5,514.086 km
Speed
5.473 km/s
True Right ascension
04h 23m 15s
True Declination
0° 00' 00"
Sunlit
Object was in daylight at epoch
Visualization orbit readout
Latitude
44.11404°
Longitude
81.33411°
Altitude
7,204.596 km
Speed
4.652 km/s
Apparent Right ascension
06h 28m 22s
Apparent Declination
32° 33' 11"
Sunlit
Object is in daylight
Visualization observer readout
Local Sidereal Time
12:26:24
Azimuth
295.832° NW
Elevation
20.539°
Doppler factor
1
Orbital elements
Apogee altitude
7,414.395 km
Perigee altitude
1,324.687 km
Semi-major axis
10,747.678 km
Eccentricity
0.2833
Inclination
47.5219°
RAAN
65.814°
Arg. of periapsis
233.4769°
True anomaly
126.58678°
Mean anomaly
97.0639°
Eccentric anomaly
112.10307°
Mean motion
1.94792 °/min
Orbital period
184.81 mins
BSTAR
0
Loading maneuver chart data...
Loading SW <> Apogee altitude chart data...
Loading historical data...
Loading historical data...
Loading historical data...
Loading historical data...
Loading historical data...
Loading historical data...
Loading historical data...
Other satellites on launch #68 in the year 1962 (1962-12-13 UTC)
|